GSAT0204 (GALILEO 8)

Last updated on Thu Sep 03 2026 00:02:49 GMT+0000 (Coordinated Universal Time)

1 40545U 15017B 26245.31116905 -.00000080 00000+0 00000+0 0 9994 2 40545 56.7622 339.5137 0004517 238.5793 121.4210 1.70475724 33568
UTC large
Height (km)
Speed (km/s)
/
Latitude / Longitude
Inclination (degrees)
Orbital Period (minutes)
Azimuth
Elevation
Range (km)
Doppler Factor

Next 0 passes for location: London (51.5072 / 0.1276)

No passes found over London.
GSAT0204 (GALILEO 8)